Wind_Speed
5 5 2 2 10 3 14 15 11 10 4 6 7 11 16 9 13 14 11 12 14 15 14 13 17 19 18 13 12 13 17 17 18 17 13 11 8 6 6 6 11 12 10 11
3 6 8 4 9 9 10 9 4 10 3 5 4 6 13 13 16 18 14 15 16 14 16 14 18 21 24 19 16 17 18 20 19 18 18 20 21 16 15 13 10 11 11 11
4 12 5 9 9 6 5 5 8 10 10 9 8 11 19 27 27 20 12 12 15 16 16 16 15 22 26 25 21 22 23 24 25 25 25 24 25 24 22 22 18 17 16 13
6 10 6 5 5 6 1 16 8 8 4 6 9 16 25 23 27 28 20 11 9 18 20 18 15 17 26 29 26 27 27 28 31 33 34 27 25 29 32 21 29 18 17 14
7 7 8 8 11 7 15 5 8 7 7 6 7 6 13 15 9 10 21 30 19 17 20 21 22 20 20 22 26 32 31 33 37 39 40 36 30 31 31 33 27 27 19 23
11 11 10 12 10 10 12 10 7 11 9 7 9 7 7 10 9 12 26 42 31 25 23 22 23 24 25 25 24 29 33 33 37 38 41 42 40 39 38 35 37 35 32 25
11 10 17 11 12 13 9 8 9 9 14 14 8 12 18 26 29 32 38 43 40 34 29 20 21 25 28 30 31 32 32 36 39 43 47 47 46 46 46 43 37 40 43 37
4 7 24 16 11 12 11 15 8 8 8 13 13 13 20 28 31 28 29 33 37 36 32 24 25 23 28 32 35 37 39 39 41 43 47 49 48 46 48 41 42 45 48 45
9 3 28 32 23 16 18 14 14 14 12 11 11 16 26 23 29 35 28 24 27 29 28 26 27 28 26 30 33 36 38 42 45 46 48 48 49 53 50 47 48 49 56 46
17 19 19 25 20 14 18 21 19 13 11 9 8 13 19 26 30 39 40 37 32 29 24 24 28 29 27 25 30 37 42 45 47 50 51 47 44 44 48 53 54 57 50 43
20 23 12 22 26 23 18 15 15 10 11 14 11 10 23 29 36 41 41 43 38 28 30 29 29 31 30 30 31 33 36 41 47 50 52 52 46 42 44 48 50 53 56 50
23 22 21 20 15 26 24 26 25 24 18 13 22 20 25 33 37 41 44 37 36 34 29 34 34 34 35 35 38 41 40 45 48 50 52 50 47 44 44 45 46 48 53 52
24 24 24 20 12 16 20 29 17 20 21 21 22 20 13 26 31 39 41 37 35 36 33 34 36 36 36 36 38 42 44 45 47 47 48 47 43 42 39 44 43 47 50 48
25 26 26 23 20 27 29 26 27 27 26 24 23 21 27 33 41 40 41 37 36 39 40 38 38 38 39 38 39 42 45 44 44 44 43 42 36 38 41 44 41 43 47 48
29 29 27 27 25 27 33 34 34 31 30 30 27 31 32 37 41 39 36 36 38 38 38 38 40 41 42 43 42 42 43 41 41 41 39 40 38 37 42 45 41 42 46 49
28 29 30 28 28 29 30 30 31 33 33 33 33 33 30 38 41 39 36 38 38 38 39 36 41 41 43 44 44 44 41 41 41 39 37 37 39 37 38 40 41 39 45 50
39 29 32 31 30 34 35 30 33 34 34 31 34 29 31 42 42 42 41 40 39 41 40 43 43 44 44 44 42 40 40 40 37 37 36 35 35 37 35 37 39 40 45 48
33 36 34 32 32 36 30 31 34 36 36 34 36 35 34 44 41 40 43 41 40 41 44 46 45 44 44 43 40 38 37 36 35 34 35 33 30 32 30 30 31 30 40 47
34 35 35 37 35 34 31 26 34 39 38 38 41 40 42 43 42 42 43 44 43 45 45 45 45 44 42 41 39 36 34 34 31 32 31 34 34 35 30 32 26 28 28 40
36 38 36 35 37 37 28 28 43 45 42 45 44 43 40 41 45 44 46 43 44 45 46 47 45 45 44 42 39 36 36 33 32 31 33 32 26 28 26 25 25 27 30 35
30 38 40 40 41 37 31 29 43 44 42 42 41 41 43 46 47 46 43 46 45 47 45 45 44 45 43 42 39 38 35 32 31 29 31 21 19 22 24 28 22 28 30 30
33 35 37 33 30 29 35 34 40 46 48 44 46 47 48 46 46 44 44 42 45 48 45 42 39 38 38 37 37 33 33 30 29 26 30 18 22 24 27 27 29 26 26 29
38 38 40 37 39 44 46 45 48 46 38 53 57 53 46 44 47 44 36 44 50 47 44 40 36 35 35 33 32 30 30 28 26 29 27 17 21 27 30 32 28 30 26 22
36 38 40 45 40 38 43 47 47 50 47 52 51 46 42 45 46 46 45 35 43 41 37 36 35 34 31 30 32 25 24 26 26 20 14 13 14 21 22 24 24 18 13 15
40 39 43 47 46 41 41 45 55 52 45 45 44 42 42 42 39 26 26 39 43 29 37 35 32 29 28 28 31 28 31 28 23 19 20 13 12 17 20 18 11 10 12 8
42 41 44 46 48 51 51 50 47 47 42 43 44 42 41 40 35 42 44 42 39 34 35 33 28 27 26 27 27 27 32 27 21 19 20 18 15 16 21 20 15 15 15 15
Wind_Direction
312 301 345 270 242 274 216 248 263 281 297 284 258 295 295 324 313 313 312 301 292 287 287 288 258 264 266 264 275 285 290 300 281 280 284 286 291 293 278 246 232 241 242 252
355 348 264 286 275 265 256 244 28 277 315 290 254 294 303 329 326 313 311 300 294 296 300 286 270 258 264 262 261 272 277 282 289 281 281 291 292 280 279 274 268 260 252 245
301 239 297 276 280 259 244 248 219 220 279 6 325 332 290 316 324 319 292 294 302 308 303 299 273 254 254 259 259 260 263 267 274 268 269 285 291 276 262 272 276 280 279 271
275 285 280 274 271 258 53 241 249 264 244 62 270 118 292 294 323 318 317 324 307 309 305 300 288 265 253 252 256 256 260 262 267 267 274 271 281 277 271 275 274 265 278 280
258 278 265 261 249 242 252 257 279 300 284 243 258 287 259 300 268 264 273 312 317 304 297 297 296 293 280 262 253 255 255 259 266 276 274 280 273 270 270 274 277 267 269 273
276 283 271 269 279 270 286 291 300 21 28 317 319 172 262 220 236 243 272 291 309 305 295 287 284 288 289 285 271 255 252 255 263 266 269 274 273 269 267 268 270 267 265 253
313 301 306 263 281 288 281 298 337 298 279 252 208 229 257 258 256 267 275 292 295 301 300 305 287 289 288 287 283 277 267 259 253 256 259 263 266 267 268 265 262 267 265 262
256 291 284 281 294 292 278 279 286 248 216 229 257 276 272 274 284 296 284 274 278 284 298 306 297 290 283 281 280 281 281 279 277 271 265 266 265 265 265 257 255 262 265 267
227 272 261 274 293 289 274 282 255 276 267 287 299 282 271 276 285 285 287 291 290 296 302 299 292 288 283 281 281 280 278 279 279 277 275 273 271 267 265 264 262 261 260 267
257 242 258 286 290 292 276 277 282 281 273 280 262 253 267 281 281 288 294 299 303 303 302 289 284 289 290 287 275 271 272 273 273 275 276 275 272 268 264 259 257 263 258 257
261 259 248 259 285 299 291 305 299 273 244 252 264 282 260 256 265 273 284 293 298 304 297 295 288 291 295 292 288 285 280 275 272 273 275 277 276 271 267 262 259 254 258 256
263 262 265 256 261 273 287 276 271 276 267 252 240 226 286 279 277 280 282 291 300 301 298 295 296 297 299 297 294 292 289 285 282 281 280 279 278 273 268 262 258 254 253 252
267 278 273 270 285 292 290 280 278 283 276 271 266 269 257 282 284 284 295 305 300 297 292 288 292 297 300 299 294 290 287 285 282 281 280 279 275 272 263 257 256 250 250 248
270 267 273 267 220 238 244 270 285 286 281 280 277 265 256 253 261 280 292 299 295 295 299 300 298 300 300 301 292 288 288 288 287 286 282 278 272 262 256 258 258 250 248 247
266 271 270 269 263 248 256 266 272 277 277 275 278 269 273 271 278 285 290 291 291 293 296 296 301 301 303 304 297 290 288 287 286 286 285 276 269 264 258 258 256 247 245 244
266 274 273 273 271 268 260 262 269 273 275 277 279 281 281 274 288 295 297 293 293 295 300 299 300 302 302 300 295 291 287 284 286 284 284 279 273 270 263 260 255 248 240 238
284 275 277 278 273 271 274 282 274 273 273 277 279 272 269 285 293 297 295 296 297 303 302 302 302 302 301 296 293 290 287 284 286 283 285 286 276 270 262 260 257 252 241 237
270 277 278 276 275 276 286 282 280 275 279 281 277 279 280 283 291 291 294 297 300 298 300 303 302 302 298 293 291 289 290 288 284 282 287 286 276 263 261 257 253 250 241 240
270 270 272 276 279 281 280 286 272 280 285 286 283 286 286 289 292 292 293 298 299 301 302 300 299 297 292 288 289 288 291 289 289 285 290 282 272 266 267 249 253 250 246 243
266 270 271 273 277 279 275 253 278 277 280 281 288 291 289 289 289 289 301 297 300 305 299 300 301 296 290 287 290 291 289 289 283 288 291 289 285 259 240 249 252 249 245 247
270 278 280 281 285 287 288 273 270 279 280 285 290 289 287 288 293 298 297 299 302 296 295 292 293 291 289 289 289 292 288 287 285 292 287 289 271 243 245 252 248 258 253 251
262 273 282 291 294 285 265 268 268 275 284 284 288 286 290 294 293 295 293 289 291 291 290 290 293 293 291 290 290 283 281 284 284 295 296 274 261 258 244 232 251 251 257 255
262 263 266 255 253 260 271 269 270 281 262 273 288 294 293 290 291 290 282 280 291 291 293 294 292 290 294 292 286 275 277 281 287 300 283 261 258 263 247 241 241 244 251 238
268 271 272 276 275 268 268 270 264 267 275 278 288 286 286 286 290 279 286 281 292 293 292 290 293 290 293 288 283 284 277 282 293 290 261 241 239 240 239 243 241 239 258 255
267 262 269 272 278 268 270 272 281 284 277 283 278 283 279 280 278 295 277 295 294 293 292 293 293 290 289 284 283 277 284 280 284 276 242 243 243 232 227 229 238 257 258 282
265 265 269 272 272 279 282 281 279 283 277 275 277 278 281 284 279 286 292 285 280 290 289 291 292 293 290 287 294 298 307 281 270 254 230 258 255 229 226 227 228 248 256 251
Height
5913 5914 5913 5920 5914 5916 5917 5917 5917 5918 5916 5915 5914 5912 5908 5910 5906 5904 5905 5904 5903 5902 5902 5902 5900 5900 5900 5902 5904 5904 5905 5905 5906 5906 5906 5906 5906 5905 5905 5904 5905 5904 5903 5902
5912 5912 5912 5913 5913 5913 5914 5914 5916 5916 5914 5914 5913 5913 5909 5908 5907 5904 5904 5902 5899 5900 5898 5899 5897 5897 5897 5899 5901 5901 5902 5903 5903 5903 5904 5905 5905 5906 5905 5904 5904 5904 5902 5901
5910 5912 5911 5910 5911 5911 5912 5912 5914 5913 5912 5911 5911 5910 5907 5906 5905 5901 5899 5899 5898 5896 5895 5895 5895 5895 5894 5896 5898 5897 5897 5899 5899 5899 5900 5901 5901 5903 5903 5903 5902 5904 5904 5901
5909 5907 5908 5908 5909 5909 5912 5908 5909 5909 5910 5912 5912 5917 5909 5905 5902 5898 5893 5895 5896 5894 5893 5892 5892 5892 5891 5892 5893 5893 5894 5894 5894 5893 5895 5896 5898 5897 5899 5901 5901 5902 5904 5903
5909 5906 5906 5906 5906 5906 5906 5907 5907 5908 5907 5908 5910 5914 5908 5907 5904 5902 5894 5891 5891 5891 5890 5888 5887 5887 5887 5888 5888 5888 5889 5889 5888 5888 5888 5890 5891 5892 5893 5896 5897 5898 5899 5901
5904 5903 5904 5903 5904 5904 5904 5905 5906 5905 5905 5909 5909 5913 5907 5903 5902 5898 5892 5888 5887 5886 5885 5885 5884 5882 5882 5881 5882 5882 5883 5883 5882 5883 5881 5882 5884 5885 5886 5889 5890 5892 5891 5894
5901 5901 5900 5901 5901 5901 5902 5902 5904 5907 5905 5906 5907 5908 5905 5900 5899 5897 5891 5887 5883 5881 5879 5879 5880 5878 5876 5875 5875 5875 5875 5875 5876 5876 5875 5875 5876 5877 5879 5882 5884 5881 5881 5881
5902 5906 5898 5896 5899 5900 5899 5899 5901 5901 5904 5907 5904 5904 5902 5895 5893 5894 5892 5887 5881 5878 5874 5875 5873 5873 5871 5870 5869 5868 5867 5867 5866 5866 5866 5866 5866 5868 5869 5871 5874 5873 5873 5873
5897 5902 5895 5892 5893 5896 5893 5895 5896 5896 5897 5898 5901 5899 5892 5890 5887 5884 5883 5880 5877 5874 5871 5869 5867 5866 5866 5864 5862 5861 5859 5858 5856 5855 5854 5854 5854 5855 5858 5858 5859 5863 5865 5864
5892 5892 5892 5888 5888 5891 5891 5889 5890 5891 5893 5895 5899 5894 5887 5883 5881 5876 5874 5871 5869 5868 5866 5864 5861 5858 5857 5857 5855 5852 5850 5847 5845 5843 5841 5842 5843 5842 5843 5845 5848 5850 5854 5858
5885 5885 5890 5885 5884 5884 5883 5883 5883 5886 5887 5887 5889 5892 5882 5877 5875 5872 5869 5866 5861 5861 5858 5855 5853 5850 5848 5846 5844 5841 5838 5835 5833 5831 5829 5828 5830 5831 5830 5830 5834 5836 5840 5846
5878 5880 5881 5883 5884 5878 5880 5879 5878 5878 5880 5882 5880 5883 5875 5870 5868 5865 5861 5859 5855 5853 5851 5847 5844 5842 5838 5835 5831 5828 5826 5822 5819 5817 5815 5816 5815 5816 5817 5817 5819 5822 5826 5832
5873 5874 5874 5876 5879 5876 5871 5869 5872 5872 5871 5871 5872 5874 5873 5865 5861 5854 5851 5851 5847 5844 5842 5839 5835 5832 5830 5826 5822 5817 5813 5810 5807 5804 5802 5801 5802 5801 5802 5804 5807 5809 5813 5819
5866 5866 5867 5869 5871 5868 5866 5864 5864 5864 5864 5864 5863 5864 5862 5857 5852 5849 5845 5842 5839 5834 5830 5828 5825 5822 5818 5815 5811 5806 5801 5798 5794 5790 5789 5788 5789 5788 5788 5789 5793 5797 5800 5805
5857 5858 5858 5859 5861 5861 5859 5858 5857 5857 5856 5854 5856 5852 5851 5845 5841 5840 5838 5834 5830 5826 5823 5819 5815 5810 5805 5801 5797 5793 5788 5785 5782 5779 5777 5774 5775 5775 5775 5776 5779 5784 5787 5793
5850 5849 5849 5850 5850 5850 5851 5852 5850 5848 5847 5845 5843 5842 5838 5831 5830 5828 5827 5824 5820 5817 5812 5808 5803 5798 5793 5788 5783 5779 5776 5773 5769 5768 5767 5763 5762 5764 5763 5763 5767 5771 5776 5780
5835 5841 5840 5840 5840 5838 5840 5842 5839 5838 5837 5837 5834 5831 5827 5821 5819 5816 5815 5811 5808 5805 5800 5796 5791 5785 5780 5775 5771 5767 5764 5761 5759 5756 5754 5753 5751 5751 5751 5751 5754 5759 5764 5769
5832 5829 5829 5831 5831 5829 5833 5830 5827 5826 5826 5826 5821 5819 5819 5811 5811 5806 5803 5800 5798 5793 5788 5783 5778 5773 5768 5763 5759 5756 5752 5750 5748 5746 5744 5741 5740 5740 5738 5740 5744 5747 5752 5757
5822 5821 5822 5820 5820 5822 5823 5822 5815 5813 5815 5814 5810 5811 5807 5803 5800 5794 5793 5790 5786 5782 5777 5771 5766 5761 5756 5751 5748 5745 5742 5740 5738 5735 5733 5729 5728 5729 5730 5731 5735 5738 5741 5746
5812 5811 5812 5812 5811 5811 5814 5811 5804 5802 5805 5799 5800 5798 5796 5792 5788 5784 5781 5777 5773 5769 5763 5758 5754 5748 5743 5740 5736 5735 5733 5731 5728 5725 5722 5719 5715 5716 5721 5724 5727 5730 5733 5737
5800 5799 5800 5800 5800 5801 5800 5798 5792 5793 5796 5791 5790 5787 5784 5780 5775 5774 5769 5764 5761 5757 5751 5747 5743 5737 5733 5730 5726 5725 5722 5721 5718 5716 5712 5710 5709 5711 5714 5716 5719 5722 5726 5728
5794 5793 5791 5791 5791 5792 5785 5786 5784 5780 5777 5778 5776 5773 5770 5767 5763 5762 5758 5752 5748 5744 5741 5737 5733 5727 5723 5720 5718 5715 5712 5711 5710 5709 5705 5703 5704 5705 5707 5709 5712 5715 5717 5718
5783 5784 5784 5785 5783 5778 5776 5775 5772 5771 5769 5765 5761 5759 5759 5755 5751 5750 5746 5740 5737 5733 5730 5726 5722 5718 5714 5711 5707 5704 5704 5702 5700 5699 5698 5697 5698 5700 5701 5704 5706 5707 5709 5709
5773 5771 5770 5767 5772 5770 5767 5763 5761 5755 5758 5753 5751 5750 5747 5743 5739 5732 5730 5727 5726 5723 5720 5715 5711 5707 5705 5702 5698 5696 5695 5694 5692 5691 5692 5693 5694 5696 5698 5699 5701 5701 5703 5702
5765 5757 5760 5759 5759 5753 5753 5748 5745 5745 5746 5742 5738 5736 5734 5732 5730 5722 5719 5720 5713 5710 5711 5707 5703 5699 5696 5693 5689 5687 5689 5686 5684 5684 5687 5688 5689 5691 5693 5695 5697 5699 5701 5702
5750 5747 5748 5747 5743 5739 5738 5738 5738 5734 5733 5729 5726 5725 5724 5721 5721 5716 5711 5708 5707 5705 5704 5699 5695 5692 5689 5687 5686 5684 5682 5679 5677 5677 5681 5683 5685 5687 5690 5691 5694 5696 5698 5699